Wind_Speed
21 23 27 22 18 20 19 17 19 19 17 20 23 27 23 24 26 25 24 23 22 20 17 14 11 11 9 7 9 10 10 9 11 12 13 15 17 19 21 24 26 29 32 35
16 18 16 16 18 19 19 19 19 17 16 20 24 30 28 27 23 22 23 24 23 20 16 12 10 9 6 6 7 9 10 11 13 15 16 17 19 21 24 28 31 35 38 40
16 13 17 16 17 16 15 15 15 16 19 22 26 31 18 18 23 21 18 14 16 18 14 9 9 7 5 4 4 6 9 13 17 19 20 21 23 26 29 32 35 40 42 43
12 14 11 13 13 13 13 13 14 15 16 9 16 10 29 11 10 7 8 10 13 13 11 9 7 5 5 3 2 6 11 15 20 23 24 25 27 30 33 37 40 43 44 43
9 10 13 12 12 12 12 12 14 16 15 17 19 8 9 11 2 4 3 1 2 7 7 6 6 6 4 3 7 10 14 18 22 25 26 28 31 35 40 44 45 46 45 45
12 9 9 10 10 10 11 13 14 16 16 4 5 6 3 3 5 7 4 3 3 7 7 5 6 5 4 8 11 14 18 22 25 27 29 32 36 41 45 47 49 49 50 50
12 12 13 12 12 12 11 9 4 3 1 5 3 5 7 8 4 3 2 3 4 6 1 4 5 3 7 11 14 17 21 24 27 28 30 36 41 45 48 51 53 54 56 56
8 4 10 12 13 9 6 7 4 4 2 4 6 5 2 4 3 3 3 6 3 2 3 6 7 9 11 15 17 20 24 26 28 31 36 41 46 49 50 52 55 58 60 61
5 5 6 8 7 8 6 7 6 4 4 2 4 3 2 1 3 2 2 1 2 2 5 8 13 15 15 16 19 23 25 29 34 37 41 46 49 49 51 54 57 61 63 61
5 4 7 9 10 11 11 6 3 5 2 3 4 4 4 4 4 5 5 5 6 9 11 12 14 15 16 19 22 26 30 35 39 41 46 47 48 50 55 58 61 61 57 57
7 8 3 6 8 10 10 11 8 5 4 4 2 2 3 5 8 8 11 12 15 19 16 14 16 17 19 23 27 30 34 38 43 48 51 49 50 54 57 59 56 56 57 57
5 5 5 6 8 9 9 9 10 6 4 6 2 5 11 10 11 12 14 19 23 24 16 15 17 22 25 26 29 31 37 47 46 46 47 50 52 54 53 54 54 54 55 56
5 5 2 2 5 11 10 11 12 12 11 10 3 5 8 12 15 18 22 27 24 15 17 20 22 25 28 30 34 42 47 45 44 46 47 48 49 50 50 51 52 53 56 57
6 7 7 3 3 4 5 6 9 11 8 11 19 21 17 16 19 24 23 15 16 19 20 22 26 33 38 40 42 42 41 42 43 44 46 47 48 49 49 50 53 55 56 56
7 7 8 9 11 13 14 15 17 20 21 19 25 25 24 23 22 15 15 16 19 21 23 28 38 39 38 39 38 39 40 41 42 44 46 47 47 47 50 52 53 54 54 54
8 7 9 11 13 15 19 19 20 21 20 21 21 19 15 14 14 18 19 22 25 26 32 40 43 40 38 38 38 38 40 42 44 45 45 44 46 49 51 52 53 53 52 48
9 9 9 6 10 13 15 12 14 15 15 14 17 15 16 15 16 18 20 24 30 37 41 40 39 37 39 39 39 40 42 44 44 44 44 46 48 50 51 52 52 50 46 42
13 12 10 9 11 1 4 4 6 11 13 15 15 15 16 19 17 15 23 33 37 36 37 39 38 40 40 40 40 41 42 42 41 42 45 47 49 50 50 50 48 45 40 39
13 11 6 4 4 11 14 12 13 12 13 15 19 19 14 17 23 23 32 36 37 38 37 39 41 40 39 39 39 39 39 39 41 44 45 47 48 48 48 47 45 40 38 35
7 8 9 5 2 4 5 9 11 12 22 8 12 15 19 22 30 33 37 39 38 35 37 38 38 38 39 40 40 39 39 40 43 43 45 46 45 46 46 45 41 36 34 35
6 8 13 13 8 8 14 13 8 8 16 21 23 23 24 27 33 38 40 37 35 37 37 37 37 37 37 37 37 36 37 40 41 44 44 43 43 44 43 42 35 34 33 35
6 6 6 7 8 7 4 12 18 21 25 25 26 26 28 32 36 39 36 35 35 35 36 37 37 36 35 35 34 35 38 40 42 42 41 41 41 41 41 37 32 31 34 35
10 11 7 9 8 20 25 24 26 26 26 26 26 29 31 35 37 35 34 33 34 33 34 34 34 32 29 30 34 36 38 41 41 40 40 40 39 39 37 33 31 30 31 32
14 16 18 20 22 24 25 27 28 27 28 27 28 30 34 35 33 32 32 32 32 31 31 31 31 29 30 32 33 36 39 40 40 39 39 38 37 37 32 29 28 28 30 31
18 19 24 27 28 27 26 25 25 24 24 27 29 31 32 30 31 32 32 31 31 30 30 31 29 30 32 35 35 38 40 39 38 38 38 37 37 35 29 27 26 26 28 29
22 24 23 25 24 24 26 25 24 23 23 26 28 28 28 31 32 32 32 32 31 30 30 31 30 33 37 36 36 38 37 36 37 38 37 36 37 32 27 27 25 24 25 25
Wind_Direction
197 207 211 220 229 238 251 259 265 268 274 279 283 284 288 292 289 282 278 276 279 285 276 266 275 285 269 246 234 242 246 253 261 279 297 304 303 303 303 303 304 306 309 311
201 211 222 229 234 242 251 259 264 274 280 286 290 290 295 295 289 283 275 271 270 268 266 264 271 272 246 222 232 236 240 251 262 277 290 297 297 297 298 300 305 310 313 311
211 223 225 231 236 241 245 256 270 281 289 291 296 299 307 309 298 285 277 266 243 244 243 244 262 242 208 210 227 245 257 268 269 277 288 296 298 301 303 306 310 311 312 311
215 223 224 230 236 240 252 263 276 285 294 294 300 293 309 318 315 305 282 266 254 232 220 231 239 205 186 201 262 283 283 281 284 280 288 299 306 307 305 306 309 310 310 309
207 222 232 235 241 251 264 273 283 289 289 293 290 268 294 317 62 43 32 71 187 193 189 204 209 203 208 274 300 302 298 294 293 285 291 306 311 309 308 308 310 309 308 309
226 229 228 233 241 251 267 282 290 286 280 277 289 226 301 11 336 344 2 17 120 150 157 185 208 209 292 308 304 301 300 299 300 299 300 307 307 308 308 308 308 308 308 309
230 240 246 251 255 266 270 270 305 323 4 226 299 253 269 315 337 4 33 86 116 118 110 208 191 261 297 293 289 293 295 298 305 306 303 303 306 307 307 306 307 309 310 311
220 237 243 250 251 246 250 231 210 244 227 279 295 245 233 322 343 40 79 106 113 99 169 189 230 263 268 268 275 284 291 297 303 301 299 303 305 305 304 305 306 308 310 310
212 226 233 232 231 221 230 219 231 247 273 292 255 275 296 200 105 80 146 175 185 234 238 265 282 286 275 274 282 286 291 296 298 298 302 304 303 301 302 302 304 306 307 308
231 245 239 230 230 233 235 237 225 218 216 267 287 271 188 172 196 210 212 243 273 302 301 287 284 284 281 282 282 284 288 294 296 295 300 301 298 298 300 302 304 306 309 310
235 233 235 222 232 241 240 238 224 218 233 179 282 257 230 226 237 249 259 276 306 317 310 290 285 284 289 289 284 287 292 295 294 294 298 298 298 299 301 304 307 308 308 308
225 243 238 242 244 243 241 240 226 220 217 215 237 264 260 262 270 277 283 301 311 313 303 293 299 302 302 297 289 291 295 300 299 297 299 300 301 303 306 307 307 307 308 308
221 228 227 236 247 248 245 247 242 244 254 244 203 263 256 273 273 281 293 302 305 302 305 305 307 307 304 300 295 296 300 302 302 304 303 304 306 307 306 306 307 308 307 307
234 240 241 258 277 273 243 259 245 238 250 258 258 276 284 282 278 290 296 293 297 304 306 308 312 309 304 300 300 303 305 306 308 308 308 308 308 307 308 310 310 310 309 310
238 261 264 268 273 275 273 268 267 265 268 262 284 288 289 287 294 290 292 291 298 298 297 302 311 312 308 306 307 309 310 311 311 310 309 308 308 310 310 310 311 311 313 313
249 269 282 284 283 282 280 277 271 267 267 273 282 287 296 293 289 292 295 298 297 295 303 308 311 310 310 311 313 313 312 311 311 311 311 311 312 312 312 313 313 314 315 315
263 275 293 279 289 292 291 285 267 270 274 276 281 293 291 285 284 294 300 308 307 304 304 308 312 313 314 314 313 312 311 311 312 313 312 313 314 313 314 314 315 316 316 315
273 280 280 275 290 294 290 284 276 281 286 284 283 286 291 296 301 307 303 305 308 309 312 314 314 315 315 313 312 311 311 313 313 313 315 316 315 315 315 315 317 317 315 319
270 266 256 260 255 287 288 279 280 282 288 290 294 294 295 302 303 297 305 312 315 315 315 314 313 312 311 310 310 311 312 312 313 314 316 316 316 315 316 318 318 318 320 323
260 245 230 238 254 227 266 293 297 300 294 302 306 296 293 294 297 309 313 317 317 316 312 311 311 311 310 311 312 312 311 312 314 316 317 318 317 319 320 320 320 320 323 322
254 252 243 247 254 258 272 282 289 271 307 305 307 296 288 294 304 311 317 318 317 315 315 314 313 312 311 311 310 309 311 314 316 318 319 319 321 322 321 320 322 321 321 322
238 228 228 222 226 267 219 290 290 297 300 299 299 291 290 300 307 311 314 317 317 316 316 313 312 311 311 310 310 313 317 318 320 320 320 322 324 323 322 323 324 319 322 325
242 239 247 247 267 285 293 294 293 296 296 295 290 290 298 304 308 313 318 320 321 321 318 319 317 314 312 313 316 318 321 321 322 321 324 325 325 326 326 326 323 321 325 329
260 266 267 279 292 293 291 291 295 294 292 289 289 295 301 306 311 317 320 322 324 325 326 326 321 317 316 316 317 320 323 323 323 325 326 327 327 330 328 326 325 326 330 333
272 279 282 288 293 294 291 293 292 288 287 289 292 298 303 310 316 317 323 324 325 326 325 322 317 316 319 320 318 321 323 324 326 327 327 329 331 331 327 329 329 331 332 332
284 288 285 289 293 288 290 293 289 286 287 291 297 302 309 313 316 320 321 321 321 321 320 319 318 319 320 317 318 322 324 327 328 328 330 333 333 331 329 328 333 335 333 334
Height
3147 3151 3152 3154 3157 3159 3160 3160 3161 3160 3160 3158 3157 3154 3156 3155 3152 3150 3150 3150 3150 3151 3151 3152 3153 3152 3152 3151 3151 3151 3152 3152 3152 3151 3151 3149 3147 3145 3143 3141 3139 3136 3134 3131
3147 3148 3152 3153 3155 3156 3156 3157 3157 3157 3156 3154 3152 3149 3149 3147 3145 3144 3143 3143 3145 3146 3147 3148 3149 3149 3149 3149 3149 3149 3150 3150 3149 3149 3147 3146 3144 3141 3139 3136 3132 3129 3126 3123
3144 3147 3149 3150 3152 3153 3153 3154 3154 3154 3152 3150 3147 3143 3143 3142 3140 3138 3138 3138 3138 3140 3142 3144 3146 3146 3146 3147 3147 3147 3148 3147 3146 3145 3143 3141 3138 3135 3132 3129 3126 3122 3118 3114
3143 3145 3147 3148 3149 3151 3151 3151 3151 3150 3150 3149 3147 3142 3138 3137 3135 3134 3133 3134 3134 3136 3139 3141 3142 3144 3144 3145 3145 3144 3144 3143 3141 3139 3137 3134 3131 3128 3125 3123 3120 3116 3111 3107
3142 3143 3144 3146 3147 3148 3149 3148 3148 3147 3147 3146 3144 3144 3137 3136 3134 3133 3133 3134 3134 3135 3137 3138 3139 3141 3141 3141 3141 3141 3140 3138 3135 3133 3130 3128 3125 3121 3118 3114 3111 3107 3103 3099
3140 3141 3143 3144 3145 3146 3147 3146 3146 3144 3144 3144 3140 3142 3137 3136 3135 3134 3134 3134 3134 3134 3135 3137 3138 3138 3138 3138 3137 3136 3135 3132 3129 3127 3125 3122 3118 3114 3110 3106 3101 3096 3092 3088
3138 3140 3141 3142 3143 3143 3144 3145 3145 3144 3143 3142 3140 3140 3136 3135 3134 3134 3133 3133 3134 3135 3136 3136 3136 3137 3136 3135 3134 3132 3130 3127 3124 3122 3119 3115 3111 3106 3101 3095 3090 3084 3079 3075
3136 3138 3138 3138 3140 3141 3141 3143 3143 3144 3144 3141 3139 3136 3135 3134 3133 3133 3133 3133 3134 3134 3135 3134 3134 3133 3132 3131 3129 3127 3125 3123 3120 3116 3113 3108 3103 3097 3091 3085 3079 3074 3068 3062
3134 3135 3136 3137 3137 3140 3139 3140 3142 3142 3141 3141 3136 3134 3135 3133 3133 3133 3133 3133 3132 3132 3132 3132 3131 3129 3128 3126 3124 3122 3120 3117 3113 3109 3105 3100 3094 3088 3082 3076 3070 3063 3057 3049
3133 3134 3134 3135 3136 3137 3138 3140 3140 3140 3141 3140 3134 3132 3132 3133 3133 3132 3131 3131 3130 3129 3128 3127 3125 3124 3122 3120 3118 3116 3113 3110 3106 3101 3095 3090 3084 3078 3072 3065 3058 3051 3044 3037
3131 3133 3135 3134 3134 3134 3136 3135 3137 3139 3138 3138 3138 3131 3130 3130 3130 3130 3129 3128 3126 3125 3123 3122 3120 3119 3117 3115 3112 3110 3107 3102 3097 3091 3085 3079 3074 3067 3060 3053 3045 3038 3031 3024
3130 3130 3130 3132 3131 3132 3132 3132 3134 3135 3135 3134 3133 3130 3128 3127 3127 3127 3126 3124 3122 3121 3119 3118 3116 3114 3112 3109 3106 3102 3098 3093 3086 3080 3075 3069 3062 3056 3048 3041 3033 3027 3020 3014
3128 3128 3129 3129 3131 3130 3129 3130 3131 3131 3131 3130 3132 3128 3126 3126 3124 3123 3121 3120 3118 3117 3115 3114 3112 3109 3106 3103 3098 3093 3087 3081 3075 3069 3063 3057 3051 3044 3037 3030 3023 3016 3009 3001
3126 3126 3127 3128 3128 3128 3128 3127 3128 3128 3128 3125 3124 3124 3125 3123 3121 3119 3117 3115 3114 3112 3110 3108 3106 3102 3098 3093 3087 3082 3076 3070 3065 3059 3053 3047 3040 3033 3026 3019 3012 3004 2996 2987
3125 3125 3125 3125 3125 3125 3125 3125 3124 3124 3123 3122 3120 3120 3119 3117 3116 3114 3113 3111 3109 3107 3104 3102 3098 3093 3087 3082 3077 3072 3066 3061 3055 3049 3043 3036 3030 3023 3016 3008 3000 2992 2983 2975
3123 3123 3123 3123 3122 3122 3120 3120 3119 3118 3118 3117 3116 3114 3114 3113 3111 3110 3109 3106 3103 3101 3098 3093 3088 3083 3078 3073 3068 3062 3057 3051 3045 3039 3032 3026 3020 3013 3004 2996 2989 2980 2972 2964
3122 3122 3122 3120 3119 3118 3117 3114 3113 3114 3113 3113 3112 3112 3110 3109 3108 3107 3104 3102 3099 3094 3089 3084 3079 3074 3069 3064 3058 3053 3047 3042 3036 3029 3024 3017 3009 3001 2993 2985 2978 2970 2962 2954
3119 3119 3120 3118 3117 3118 3113 3112 3112 3111 3111 3110 3108 3107 3107 3106 3105 3103 3099 3096 3092 3086 3081 3076 3071 3065 3060 3054 3049 3044 3038 3032 3026 3021 3014 3007 2999 2991 2983 2976 2968 2960 2952 2946
3115 3116 3117 3116 3115 3113 3111 3110 3110 3108 3109 3106 3105 3104 3103 3101 3099 3099 3094 3089 3084 3078 3073 3067 3062 3056 3051 3046 3041 3035 3030 3024 3019 3013 3005 2998 2989 2981 2974 2966 2958 2950 2943 2937
3112 3113 3115 3114 3114 3113 3108 3107 3107 3106 3103 3102 3101 3100 3098 3095 3092 3090 3086 3082 3077 3072 3066 3060 3054 3049 3043 3038 3032 3027 3022 3016 3011 3004 2996 2988 2980 2972 2964 2956 2949 2942 2936 2930
3111 3110 3110 3110 3111 3106 3103 3104 3103 3104 3103 3097 3096 3094 3091 3089 3087 3082 3078 3074 3069 3062 3057 3052 3046 3041 3035 3030 3025 3020 3015 3009 3003 2996 2988 2980 2972 2964 2956 2948 2942 2935 2930 2924
3107 3106 3106 3106 3105 3101 3100 3100 3100 3098 3094 3092 3090 3088 3085 3083 3079 3076 3071 3066 3061 3056 3050 3045 3039 3034 3028 3023 3018 3013 3008 3001 2994 2987 2980 2973 2965 2956 2948 2941 2936 2930 2924 2918
3103 3102 3102 3103 3100 3097 3095 3093 3091 3089 3088 3086 3084 3081 3079 3076 3072 3068 3064 3059 3054 3048 3042 3037 3032 3027 3022 3016 3011 3006 3000 2993 2986 2980 2973 2966 2958 2949 2942 2935 2930 2924 2918 2912
3097 3097 3096 3095 3094 3092 3090 3088 3086 3084 3082 3080 3077 3075 3072 3068 3064 3061 3057 3052 3047 3042 3036 3030 3025 3021 3017 3011 3005 2999 2993 2986 2979 2973 2966 2958 2950 2943 2936 2931 2925 2919 2913 2907
3094 3093 3090 3089 3087 3085 3083 3081 3080 3078 3076 3074 3072 3069 3065 3061 3058 3054 3050 3045 3040 3035 3030 3025 3020 3016 3011 3005 2999 2993 2987 2980 2974 2967 2959 2952 2944 2937 2932 2927 2921 2915 2909 2904
3089 3088 3086 3083 3082 3079 3077 3076 3074 3072 3071 3069 3067 3064 3061 3057 3053 3049 3045 3039 3034 3029 3024 3019 3014 3009 3004 2998 2993 2988 2981 2975 2967 2960 2953 2946 2939 2933 2927 2922 2918 2913 2907 2900